Simultaneous Nadir Overpasses (SNOs) Predictions

Prediction of SNOs between AQUA and METOP-A Satellite Orbit:

Table of predicted SNOs for the next 14.0 days since TLE Epoch: 11/1/2019
Index Date (AQUA) Time (AQUA) Lat,Lon (AQUA) SZA (AQUA ) Date (METOP-A) Time (METOP-A) Lat,Lon (METOP-A) SZA (METOP-A ) Distance(km) Time Diff (sec)
1 11/04/2019 01:49:07 75.02, 144.15 90.21 11/04/2019 01:48:02 74.94, 140.98 90.23 91.96 65
2 11/04/2019 02:38:45 -75.60, -49.81 89.17 11/04/2019 02:38:30 -75.58, -49.82 89.18 1.53 15
3 11/04/2019 03:28:13 75.66, 117.64 90.92 11/04/2019 03:29:09 75.64, 117.68 90.89 3.04 56
4 11/06/2019 21:23:28 75.42,-150.50 91.49 11/06/2019 21:22:17 75.31,-151.60 91.43 33.12 71
5 11/06/2019 22:12:58 -75.60, 16.64 88.31 11/06/2019 22:12:52 -75.62, 16.66 88.28 3.15 6
6 11/06/2019 23:02:26 75.67,-175.92 91.78 11/06/2019 23:03:31 75.68,-175.85 91.78 2.35 65
7 11/09/2019 16:57:45 75.58, -84.50 92.48 11/09/2019 16:56:35 75.59, -84.42 92.50 2.58 70
8 11/09/2019 17:47:12 -75.61, 83.05 87.48 11/09/2019 17:47:16 -75.62, 82.99 87.47 2.12 4
9 11/09/2019 18:36:41 75.72,-109.65 92.66 11/09/2019 18:37:53 75.76,-109.23 92.68 12.14 72
10 11/12/2019 12:31:59 75.59, -18.11 93.29 11/12/2019 12:30:59 75.57, -18.10 93.27 2.20 60
11 11/12/2019 13:21:26 -75.62, 149.45 86.68 11/12/2019 13:21:39 -75.65, 149.46 86.65 3.41 13
12 11/12/2019 14:11:03 76.13, -44.46 93.89 11/12/2019 14:12:09 76.12, -41.70 93.80 73.52 66
13 11/15/2019 08:06:12 75.62, 48.26 94.06 11/15/2019 08:05:21 75.61, 48.35 94.05 2.90 51
14 11/15/2019 08:55:39 -75.65,-144.18 85.91 11/15/2019 08:56:02 -75.64,-144.22 85.92 1.27 23




NCC Satellite Simultaneous Nadir Overpasses (SNOs) Prediction Service
